Damascus, Syria

10:14 PM EEST on June 23, 2017 (GMT +0300)
Damascus International

Weather History for OSDI - March, 2014

Change the Weather History Date:

Tuesday, March 25, 2014

  Actual Average Record
Temperature  
Mean Temperature 61 °F -  
Max Temperature 74 °F 74 °F 86 °F (2008)
Min Temperature 48 °F 44 °F 32 °F (2005)
Degree Days  
Heating Degree Days 4    
Growing Degree Days 11 (Base 50)    
Moisture  
Dew Point 39 °F    
Average Humidity 52    
Maximum Humidity 88    
Minimum Humidity 18    
Precipitation  
Precipitation 0.04 in 0.02 in - ()
Sea Level Pressure  
Sea Level Pressure 29.93 in    
Wind  
Wind Speed 4 mph ()    
Max Wind Speed 17 mph    
Max Gust Speed -    
Visibility 6.7 miles    
Events Rain    
Averages and records for this station are not official NWS values.
T = Trace of Precipitation, MM = Missing Value Source: Averaged Metar Reports

Daily Weather History Graph

Daily Weather History Graph

Search for Another Location

Airport or City:

Trip Planner

Search our weather history database for the weather conditions in past years. The results will help you decide how hot, cold, wet, or windy it might be!

Date:

Astronomy

Mar. 25, 2014 Rise Set
Actual Time 5:31 AM EET 5:49 PM EET
Civil Twilight 5:06 AM EET 6:13 PM EET
Nautical Twilight 4:37 AM EET 6:42 PM EET
Astronomical Twilight 4:08 AM EET 7:12 PM EET
Moon 1:20 AM EET (3/25) 12:11 PM EET (3/25)
Length of Visible Light 13h 07m
Length of Day
12h 17m
Waning Crescent, 35% of the Moon is Illuminated
Mar 25
Waning Crescent
Mar 30
New
Apr 7
First Quarter
Apr 15
Full
Apr 22
Last Quarter

Hourly Weather History & Observations

Time (EET) Temp. Dew Point Humidity Pressure Visibility Wind Dir Wind Speed Gust Speed Precip Events Conditions
12:00 AM 55.4 °F 33.8 °F 44% 29.98 in - WNW 9.2 mph - N/A   Clear
1:00 AM 53.6 °F 33.8 °F 47% 29.95 in - WNW 4.6 mph - N/A   Clear
2:00 AM 52 °F 31 °F 33% 29.85 in 9 mi WNW 2.2 mph - -   Scattered Clouds
2:00 AM 51.8 °F 32.0 °F 47% 29.95 in - WNW 2.3 mph - N/A   Clear
3:00 AM 50.0 °F 32.0 °F 50% 29.92 in - Calm Calm - N/A   Clear
4:00 AM 48.2 °F 32.0 °F 54% 29.92 in - WNW 4.6 mph - N/A   Clear
5:00 AM 54 °F 31 °F 29% 29.83 in 9 mi WNW 8.9 mph - -   Mostly Cloudy
5:00 AM 53.6 °F 30.2 °F 41% 29.92 in - WNW 9.2 mph - N/A   Clear
6:00 AM 53.6 °F 33.8 °F 47% 29.92 in 6.2 mi Calm Calm - N/A   Mostly Cloudy
7:00 AM 53.6 °F 35.6 °F 51% 29.95 in 6.2 mi Calm Calm - N/A   Mostly Cloudy
8:00 AM 57 °F 38 °F 37% 29.88 in 9 mi Calm Calm - -   Partly Cloudy
8:00 AM 57.2 °F 41.0 °F 55% 29.95 in 6.2 mi Calm Calm - N/A   Mostly Cloudy
9:00 AM 59.0 °F 37.4 °F 45% 29.95 in 6.2 mi Calm Calm - N/A   Mostly Cloudy
10:00 AM 62.6 °F 37.4 °F 39% 29.95 in 6.2 mi Calm Calm - N/A   Mostly Cloudy
11:00 AM 67 °F 35 °F 19% 29.86 in 9 mi NNE 2.2 mph - -   Partly Cloudy
11:00 AM 66.2 °F 35.6 °F 32% 29.95 in 6.2 mi NNE 4.6 mph - N/A   Mostly Cloudy
12:00 PM 71.6 °F 33.8 °F 25% 29.92 in 6.2 mi Variable 4.6 mph - N/A   Mostly Cloudy
1:00 PM 73.4 °F 32.0 °F 22% 29.89 in 6.2 mi WNW 6.9 mph - N/A   Mostly Cloudy
2:00 PM 73 °F 39 °F 18% 29.80 in 9 mi West 4.5 mph - -   Partly Cloudy
2:00 PM 71.6 °F 32.0 °F 23% 29.89 in 6.2 mi West 4.6 mph - N/A   Mostly Cloudy
3:00 PM 62.6 °F 42.8 °F 48% 29.92 in 6.2 mi SSW 13.8 mph - N/A   Mostly Cloudy
4:00 PM 57.2 °F 48.2 °F 72% 29.95 in 5.0 mi South 17.3 mph - N/A Rain Rain
5:00 PM 59 °F 50 °F 64% 29.90 in 6 mi ENE 2.2 mph - - Rain Light Rain
5:00 PM 59.0 °F 48.2 °F 67% 29.98 in 6.2 mi East 8.1 mph - N/A   Mostly Cloudy
6:00 PM 57.2 °F 48.2 °F 72% 29.98 in 6.2 mi Variable 2.3 mph - N/A Rain Light Rain
7:00 PM 57.2 °F 48.2 °F 72% 29.98 in 6.2 mi North 6.9 mph - N/A   Mostly Cloudy
8:00 PM 56 °F 52 °F 80% 29.92 in 7 mi SSW 2.2 mph - -   Partly Cloudy
8:00 PM 55.4 °F 48.2 °F 77% 29.98 in 6.2 mi WSW 3.5 mph - N/A   Mostly Cloudy
9:00 PM 51.8 °F 48.2 °F 88% 29.98 in 6.2 mi South 3.5 mph - N/A   Scattered Clouds
10:00 PM 50.0 °F 46.4 °F 87% 29.98 in 6.2 mi South 5.8 mph - N/A   Scattered Clouds
11:00 PM 52 °F 48 °F 83% 29.93 in 7 mi WSW 4.5 mph - -   Scattered Clouds
11:00 PM 50.0 °F 46.4 °F 87% 30.01 in 6.2 mi WSW 8.1 mph - N/A   Scattered Clouds